Location: Unspecified
(50.7218°N, 3.5336°W)
Time: 04:33:06
(UTC+02:00)

ISS - Visible Passes

Search period start: 25 September 2017 00:00
Search period end: 05 October 2017 00:00
Orbit: 401 x 407 km, 51.6° (Epoch: 25 September)

Date Brightness Start Highest point End Pass type
(mag) Time Alt. Az. Time Alt. Az. Time Alt. Az.
25 Sep -1.4 21:19:11 10° SSE 21:19:29 11° SSE 21:19:29 11° SSE visible
26 Sep -2.0 22:01:05 10° SW 22:02:31 21° SSW 22:02:31 21° SSW visible
27 Sep -2.4 21:09:16 10° SSW 21:11:51 22° SE 21:12:39 20° ESE visible
27 Sep -1.0 22:44:42 10° WSW 22:45:19 15° WSW 22:45:19 15° WSW visible
28 Sep -3.5 21:52:25 10° SW 21:55:17 51° S 21:55:17 51° S visible
29 Sep -3.1 21:00:15 10° SW 21:03:19 37° SSE 21:05:07 20° E visible
29 Sep -1.6 22:36:22 10° W 22:37:47 24° W 22:37:47 24° W visible
30 Sep -4.0 21:43:57 10° WSW 21:47:13 83° SSE 21:47:30 72° E visible
01 Oct -3.7 20:51:35 10° WSW 20:54:49 62° SSE 20:57:10 17° E visible
01 Oct -1.9 22:28:02 10° W 22:29:48 29° W 22:29:48 29° W visible
02 Oct -3.8 21:35:33 10° W 21:38:50 78° N 21:39:24 57° ENE visible
03 Oct -3.9 20:43:05 10° WSW 20:46:22 89° SSE 20:48:57 15° ENE visible
03 Oct -2.1 22:19:38 10° W 22:21:35 33° WNW 22:21:35 33° WNW visible
04 Oct -3.8 21:27:08 10° W 21:30:25 73° N 21:31:06 51° ENE visible
04 Oct -0.3 23:03:39 10° WNW 23:03:44 11° WNW 23:03:44 11° WNW visible
